Regional Weather Roundup
Issued by NWS

Home | Current Version | Previous Version | Graphics & Text | Print | Product List | Glossary On
Versions: 1 2 3 4 5 6 7 8 9 10 11 12 13 14 15 16 17 18 19 20 21 22 23 24 25 26 27
000
ASUS45 KCYS 221310
RWRWY

WYOMING REGIONAL WEATHER ROUNDUP
NATIONAL WEATHER SERVICE CHEYENNE WY
700 AM MDT FRI SEP 22 2017

NOTE:  "FAIR" INDICATES FEW OR NO CLOUDS BELOW 12,000 FEET
WITH NO SIGNIFICANT WEATHER AND/OR OBSTRUCTIONS TO VISIBILITY.

WYZ001-221400-
YELLOWSTONE NATIONAL PARK

CITY           SKY/WX    TMP DP  RH WIND       PRES   REMARKS
LK YELLOWSTONE NOT AVBL
W YELLOWSTONE  NOT AVBL

$$
WYZ002>013-054>058-071-098>099-221400-
NORTHERN WYOMING

CITY           SKY/WX    TMP DP  RH WIND       PRES   REMARKS
JACKSON        CLOUDY    35  34  96 CALM      29.82R
CODY           FLURRIES  33  31  92 N3        29.94R
GREYBULL       LGT RAIN  40  39  97 NW6       29.90S
WORLAND        CLOUDY    39  38  96 W6        29.93R WCI  35
SHERIDAN       CLOUDY    43  39  86 W12       29.96R
BUFFALO        CLOUDY    42  35  76 N16       29.94R
GILLETTE       CLOUDY    44  35  70 N16       29.89R
HULETT         CLOUDY    45  36  70 N3        29.88R
NEWCASTLE      FAIR      45  37  76 S6        29.81R

$$
WYZ014>020-022>026-101>103-221400-
CENTRAL WYOMING

CITY           SKY/WX    TMP DP  RH WIND       PRES   REMARKS
BIG PINEY      CLOUDY    41  34  76 S12       29.83R
PINEDALE       DRIZZLE   37  36  93 SE15      29.85F WCI  28
DUBOIS         SNOW      32  32 100 SE10      29.82S VSB 1/2 WCI  24
LANDER           N/A    N/A N/A N/A MISG      29.91R
RIVERTON       LGT RAIN  39  37  92 NE9       29.89S WCI  33
CASPER         CLOUDY    38  33  82 N5        29.91R WCI  34
DOUGLAS        FAIR      35  31  85 NW10      29.88R WCI  27

$$
WYZ021-027>030-104>119-221400-
SOUTHERN WYOMING

CITY           SKY/WX    TMP DP  RH WIND       PRES   REMARKS
EVANSTON       FOG       33  33 100 S6        29.83S VSB 1/2 WCI  28
KEMMERER         N/A     36  34  93 W6        29.84R WCI  31
FORT BRIDGER   CLOUDY    39  39 100 S7        29.87R WCI  34
ROCK SPRINGS   LGT RAIN  37  36  96 E7        29.89R WCI  32
DIXON          FAIR      47  34  60 NW15G23   29.87R
RAWLINS        FAIR      40  31  70 N14       29.88R WCI  32
SARATOGA       FAIR      43  32  65 N13G18    29.88R
LARAMIE        FAIR      50  21  32 SW17      29.88R
CHEYENNE       FAIR      42  35  76 W9        29.85R
TORRINGTON     FAIR      41  36  82 NW5       29.80R
PINE BLUFFS    FAIR      39  36  87 MISG      29.81R

$$




USA.gov is the U.S. government's official web portal to all federal, state and local government web resources and services.